CZ-6A DEB, 54320

Orbit data source: Space-Track

CZ-6A DEB, 54320 is space debris in SSO originally from a launch on Fri, 11 Nov 2022 UTC launched from the Taiyaun Space Center, China (TSC). Debris objects in space refer to the collection of defunct objects orbiting the Earth. Examples of debris include non-operational satellites, rocket bodies, and fragments generated from explosions, collisions, or faulty payload assembly.

Loading next visibility...
Identifier
54320, 2022-151BP
Orbit
SSO
Country
Flag of CNCN / PRC
Related business
Manufacturer
SAST
Mission
Spacecraft
Bus & Motor
Unknown
Mass
Unknown
Launch date (UTC)
2022-11-11 (4 years ago)
Launch vehicle
Unknown
Launch site
Taiyaun Space Center, China (TSC)
Object type
Payload
Rocket body
Debris
Shape & HBR
Unknown shape, 0.2 m
Radar Cross Section
Medium (>0.1 m² and <1 m²)

Expand to show TLE details & history
Last TLE update: 2 days ago

TLE from 2 days ago
0 CZ-6A DEB
1 54320U 22151BP  26171.34506932  .00000303  00000-0  24658-3 0  9998
2 54320  98.9512 143.2360 0134425  52.3340 308.9926 13.93033137182602
Epoch: 2026-06-20T08:16Z
TLE epoch observation values (Epoch: 2026-06-20T08:16:53.989Z)
Latitude
-0.00002°
Longitude
110.45002°
Altitude
859.972 km
Speed
7.453 km/s
True Right ascension
09h 32m 56s
True Declination
0° 00' 00"
Sunlit
Object was in daylight at epoch
Visualization orbit readout
Latitude
Unknown
Longitude
Unknown
Altitude
Unknown
Speed
Unknown
Apparent Right ascension
Unknown
Apparent Declination
Unknown
Sunlit
N/A
Visualization observer readout
Local Sidereal Time
21:56:20
Azimuth
Unknown
Elevation
Unknown
Doppler factor
Unknown
Orbital elements
Apogee altitude
1,013.267 km
Perigee altitude
817.185 km
Semi-major axis
7,293.363 km
Eccentricity
0.01344
Inclination
98.9512°
RAAN
143.236°
Arg. of periapsis
52.334°
True anomaly
307.78266°
Mean anomaly
308.9926°
Eccentric anomaly
308.38891°
Mean motion
3.48459 °/min
Orbital period
103.31 mins
BSTAR
0.00024658
Loading maneuver chart data...
Computing Atmospheric mass density...
Loading historical data...
Loading historical data...
Loading historical data...
Loading historical data...
Loading historical data...
Loading historical data...
Loading historical data...

Documentation

Showing up to 5 results
|